This is the latest recevied weather packets stored in our database for station/object OK2ILA-1. If no packets are shown the sender has not sent any weather packets the latest 10 day(s).
| Time | Temp. | Humidity | Pressure | Rain* | Wind** | Luminosity | Snow |
|---|---|---|---|---|---|---|---|
| 1778111578 | 14.44° C | 100% | 1008.3 hPa | 0 mm | - | - | - |
| 1778110858 | 14.44° C | 100% | 1008.1 hPa | 0 mm | - | - | - |
| 1778110137 | 15° C | 100% | 1008 hPa | 0 mm | - | - | - |
| 1778109417 | 15° C | 100% | 1007.9 hPa | 0 mm | - | - | - |
| 1778108696 | 15.56° C | 100% | 1008 hPa | 0 mm | - | - | - |
| 1778107975 | 15.56° C | 100% | 1008 hPa | 0 mm | - | - | - |
| 1778107254 | 16.11° C | 100% | 1007.9 hPa | 0 mm | - | - | - |
| 1778106534 | 18.33° C | 100% | 1007.9 hPa | 0 mm | - | - | - |
| 1778105813 | 17.78° C | 100% | 1007.8 hPa | 0 mm | - | - | - |
| 1778105092 | 17.78° C | 100% | 1007.7 hPa | 0 mm | - | - | - |
| 1778104372 | 17.78° C | 100% | 1007.6 hPa | 0 mm | - | - | - |
| 1778103651 | 17.78° C | 100% | 1007.5 hPa | 0 mm | - | - | - |
| 1778102930 | 17.78° C | 100% | 1007.5 hPa | 0 mm | - | - | - |
| 1778102210 | 18.33° C | 100% | 1007.5 hPa | 0 mm | - | - | - |
| 1778101489 | 18.89° C | 100% | 1007.4 hPa | 0 mm | - | - | - |
| 1778100768 | 18.89° C | 100% | 1007.3 hPa | 0 mm | - | - | - |
| 1778100048 | 19.44° C | 100% | 1007.3 hPa | 0 mm | - | - | - |
| 1778099327 | 19.44° C | 100% | 1007.2 hPa | 0 mm | - | - | - |
| 1778098606 | 19.44° C | 100% | 1007.3 hPa | 0 mm | - | - | - |
| 1778097885 | 19.44° C | 100% | 1007.1 hPa | 0 mm | - | - | - |
| 1778097165 | 19.44° C | 100% | 1007.1 hPa | 0 mm | - | - | - |
| 1778096444 | 19.44° C | 100% | 1007 hPa | 0 mm | - | - | - |
| 1778095723 | 19.44° C | 100% | 1007 hPa | 0 mm | - | - | - |
| 1778095003 | 19.44° C | 100% | 1007 hPa | 0 mm | - | - | - |
| 1778094765 | 19.44° C | 100% | 1006.8 hPa | 0 mm | - | - | - |
* Rain latest hour (hover to see other rain measurements)
** Current wind speed in m/s (hover to see current wind gust speed)